CAPE
5 8 7 33 21 2 9 39 11 1 8 7 9 4 4 0 0 0 0 0 0 21 47 0 8 17 0 3 8 113 120 1 0 0 0 0 0 0 17 117 189 329 426 632 127
5 4 6 32 21 20 8 7 35 3 9 1 2 0 0 0 0 0 0 7 72 72 23 6 3 34 0 11 15 52 76 4 0 0 0 1 2 0 87 141 335 575 894 1047 644
3 4 6 29 23 25 8 0 35 18 4 4 2 0 0 0 0 0 7 14 6 75 49 12 22 35 20 24 24 1 20 26 8 49 57 9 6 0 59 16 116 472 680 1092 881
3 4 6 31 17 27 12 0 28 39 8 5 0 0 0 0 0 0 53 36 176 42 0 13 17 34 17 11 15 32 7 88 19 27 63 35 1 0 0 0 49 812 1010 884 778
4 4 12 9 32 22 20 0 12 25 16 0 2 0 0 0 0 0 3 19 150 103 5 6 4 6 13 7 15 18 22 0 0 21 8 7 1 0 0 0 22 271 935 804 451
6 5 5 8 25 25 28 5 1 26 28 0 3 8 0 0 0 0 1 69 88 11 20 21 0 3 1 12 12 1 20 0 20 1 0 2 1 0 0 67 187 255 339 776 720
4 3 5 7 17 14 21 7 3 16 30 9 0 0 0 0 0 0 121 129 37 3 3 2 21 6 12 3 6 19 19 0 10 26 0 0 0 0 0 1 117 169 366 646 880
3 2 2 8 13 15 4 6 9 0 14 22 0 0 0 0 0 0 5 61 19 0 0 0 1 0 20 18 7 22 37 21 30 31 0 0 6 0 0 0 7 64 275 423 781
4 2 0 1 10 7 5 0 3 2 1 0 0 0 0 0 9 0 0 12 6 10 4 0 8 7 2 14 7 33 11 0 26 13 6 2 0 0 0 0 0 0 13 223 416
2 0 2 0 6 6 6 0 0 0 0 0 0 0 0 0 0 0 0 0 13 3 8 2 8 0 0 1 0 26 20 14 5 5 5 2 1 0 0 0 0 0 0 0 90
0 0 1 0 1 1 2 0 0 0 0 0 0 0 0 0 0 0 0 1 4 4 0 1 0 0 0 1 0 8 13 17 18 1 0 0 0 0 0 0 0 0 0 0 0
0 0 0 0 1 6 0 0 0 0 0 0 0 0 0 0 2 4 0 6 10 0 1 0 0 0 0 2 10 34 2 23 33 0 0 0 1 0 0 0 0 0 0 0 0
0 0 0 0 0 0 0 0 0 0 0 0 0 0 0 0 0 0 0 4 1 0 0 2 1 0 1 2 22 30 0 2 0 8 12 0 0 0 0 0 0 0 0 0 0
0 0 0 0 0 0 0 0 0 0 0 0 0 0 0 1 0 0 0 0 2 0 0 0 4 0 2 0 0 0 0 0 0 0 0 0 0 0 0 0 0 0 0 0 0
0 0 0 0 0 0 0 0 0 0 0 0 0 0 0 0 0 0 0 1 3 2 1 0 6 1 4 0 0 0 1 3 6 0 0 1 0 0 0 0 0 0 0 0 0
0 0 0 0 0 0 0 0 0 0 0 0 0 0 0 3 0 0 0 0 4 2 0 1 0 0 0 0 0 4 13 2 0 0 0 0 0 0 0 0 0 0 0 0 0
0 0 0 0 0 0 0 0 0 0 0 0 0 0 0 0 0 0 0 0 0 0 0 0 0 0 0 9 5 16 6 2 0 0 0 0 0 0 0 0 0 0 0 0 0
0 0 0 0 0 0 0 0 0 0 0 0 0 0 0 0 0 0 0 0 0 0 0 0 0 0 0 0 0 0 0 0 0 0 0 0 0 0 0 0 0 0 0 0 0
0 0 0 0 0 0 0 0 0 0 0 0 0 0 0 0 0 0 0 0 0 0 0 0 0 0 0 0 0 0 0 0 0 0 0 0 0 0 0 0 0 0 0 0 0
0 0 0 0 0 0 0 0 0 0 0 0 0 0 0 0 0 0 0 0 0 0 0 0 0 0 0 0 0 0 0 0 0 0 0 0 0 0 0 0 0 0 0 0 0
0 0 0 0 0 0 0 0 0 0 0 0 0 0 0 0 0 0 0 0 0 0 0 0 0 0 0 0 0 0 0 0 0 0 0 0 0 0 0 0 0 0 0 0 0
0 0 1 0 1 0 0 0 0 0 0 0 0 0 0 0 0 0 0 0 0 0 0 0 0 0 0 0 0 0 0 0 0 0 0 0 0 0 0 0 0 0 0 0 0
0 1 0 2 0 0 0 0 0 0 0 0 0 0 0 0 0 0 0 0 0 0 0 0 0 0 0 0 0 0 0 0 0 0 0 0 0 0 0 0 0 0 0 0 0
0 0 1 4 0 0 0 0 0 0 0 0 0 0 0 0 0 0 0 0 0 0 0 0 0 0 0 0 0 0 0 0 0 0 0 0 0 0 0 0 0 0 0 0 0
0 0 0 0 0 0 0 0 0 0 0 0 0 0 0 0 0 0 0 0 0 0 0 0 0 0 0 0 0 0 0 0 0 0 0 0 0 0 0 0 0 0 0 0 0
0 0 0 0 0 0 0 0 0 0 0 0 0 0 0 0 0 0 0 0 0 0 0 0 0 0 0 0 0 0 0 0 0 0 0 0 0 0 0 0 0 0 0 0 0
0 0 0 0 0 0 0 0 0 0 0 0 0 0 0 0 0 0 0 0 0 0 0 0 0 0 0 0 0 0 0 0 0 0 0 0 0 0 0 0 0 0 0 0 0
CIN
-0 -0 -0 -0 -0 -2 -0 -0 -0 -0 -0 -0 -0 -0 -0 -0 -0 -0 -0 -0 -0 -1 -0 -4 -13 -8 -1 -23 -9 -27 -0 -0 -0 -0 -0 -0 -0 -0 -47 -93 -119 -118 -103 -97 -168
-0 -0 -0 -0 -0 -2 -0 -0 -0 -1 -0 -0 -0 -0 -0 -0 -0 -0 -0 -11 -4 -13 -11 -7 -10 -15 -0 -12 -4 -1 -0 -0 -0 -0 -0 -67 -49 -0 -99 -75 -67 -43 -80 -45 -36
-0 -0 -0 -0 -0 -1 -1 -0 -0 -0 -0 -0 -0 -0 -0 -0 -0 -0 -5 -7 -10 -8 -14 -13 -12 -11 -5 -7 -3 -0 -24 -3 -28 -100 -160 -130 -80 -0 -104 -105 -102 -28 -51 -29 -13
-0 -0 -1 -0 -0 -2 -4 -0 -0 -0 -0 -0 -0 -0 -0 -0 -0 -0 -17 -17 -2 -18 -0 -6 -11 -1 -0 -2 -4 -0 -3 -9 -29 -120 -141 -123 -179 -0 -0 -0 -158 -56 -41 -37 -44
-0 -1 -0 -0 -0 -5 -5 -0 -0 -0 -0 -0 -0 -0 -0 -0 -0 -0 -21 -56 -9 -7 -13 -1 -20 -7 -1 -3 -8 -1 -4 -0 -0 -74 -154 -179 -45 -0 -0 -0 -176 -112 -49 -26 -37
-0 -1 -0 -0 -2 -2 -2 -5 -0 -0 -1 -0 -0 -0 -0 -0 -0 -0 -58 -21 -14 -22 -9 -5 -0 -48 -2 -8 -6 -1 -5 -0 -0 -8 -0 -36 -12 -0 -0 -50 -94 -97 -104 -40 -30
-0 -0 -1 -0 -3 -3 -4 -0 -0 -0 -0 -1 -0 -0 -0 -0 -0 -0 -5 -18 -30 -40 -8 -15 -17 -1 -9 -3 -4 -23 -4 -0 -1 -0 -5 -0 -57 -115 -0 -4 -66 -82 -78 -44 -28
-0 -0 -1 -1 -5 -2 -1 -0 -0 -0 -0 -0 -0 -0 -0 -0 -0 -0 -51 -18 -38 -8 -0 -7 -5 -0 -0 -24 -25 -11 -3 -0 -0 -0 -0 -0 -31 -0 -0 -0 -55 -88 -82 -60 -34
-0 -1 -0 -4 -4 -5 -0 -1 -0 -0 -0 -0 -0 -0 -0 -0 -7 -0 -0 -15 -21 -27 -35 -0 -2 -0 -0 -11 -4 -4 -7 -0 -0 -1 -2 -1 -0 -0 -0 -0 -0 -4 -150 -81 -51
-0 -0 -2 -1 -3 -0 -1 -0 -0 -0 -0 -0 -0 -0 -0 -0 -0 -0 -2 -3 -11 -7 -2 -2 -0 -0 -0 -2 -1 -3 -8 -13 -1 -0 -4 -0 -0 -0 -0 -0 -0 -3 -0 -32 -90
-0 -0 -3 -0 -1 -1 -0 -0 -0 -0 -0 -0 -0 -0 -0 -0 -0 -0 -0 -2 -7 -4 -0 -0 -0 -0 -0 -0 -0 -28 -27 -19 -23 -2 -13 -0 -0 -19 -0 -0 -0 -0 -0 -0 -0
-0 -0 -0 -0 -1 -5 -0 -0 -0 -0 -0 -0 -0 -0 -0 -0 -3 -4 -6 -3 -0 -0 -0 -0 -0 -0 -0 -0 -19 -10 -29 -19 -16 -65 -1 -0 -1 -3 -0 -0 -0 -0 -0 -0 -0
-0 -0 -0 -0 -0 -0 -0 -0 -0 -0 -0 -0 -0 -0 -0 -0 -0 -0 -0 -1 -0 -0 -0 -1 -0 -0 -0 -6 -28 -8 -0 -27 -0 -0 -9 -0 -0 -0 -0 -0 -0 -0 -0 -0 -0
-0 -0 -0 -0 -0 -4 -2 -0 -0 -0 -0 -0 -0 -0 -0 -20 -0 -0 -0 -0 -0 -0 -0 -0 -0 -0 -0 -2 -3 -0 -0 -0 -0 -0 -4 -1 -0 -0 -0 -0 -0 -0 -0 -0 -0
-0 -0 -0 -0 -0 -3 -0 -0 -0 -0 -0 -0 -0 -0 -0 -1 -0 -0 -0 -2 -0 -0 -0 -0 -0 -0 -3 -2 -0 -0 -2 -29 -10 -1 -0 -0 -0 -0 -0 -0 -0 -0 -0 -0 -0
-0 -0 -0 -0 -0 -0 -0 -0 -0 -0 -0 -0 -0 -0 -0 -0 -0 -0 -0 -0 -1 -0 -0 -0 -0 -0 -0 -6 -0 -44 -5 -10 -0 -0 -2 -0 -0 -0 -0 -0 -0 -0 -0 -0 -0
-0 -0 -0 -0 -0 -0 -0 -0 -0 -0 -0 -0 -0 -0 -0 -0 -0 -0 -0 -0 -0 -0 -0 -0 -0 -0 -0 -22 -26 -43 -30 -2 -0 -0 -0 -0 -0 -0 -0 -0 -0 -0 -0 -0 -0
-0 -0 -0 -0 -0 -0 -0 -0 -0 -0 -0 -0 -0 -0 -0 -0 -0 -0 -0 -0 -0 -0 -0 -0 -0 -0 -0 -3 -2 -4 -0 -0 -0 -0 -0 -0 -0 -0 -0 -0 -0 -0 -0 -0 -0
-0 -0 -0 -0 -0 -0 -0 -0 -0 -0 -0 -0 -0 -0 -0 -0 -0 -0 -0 -0 -0 -0 -0 -0 -0 -0 -0 -0 -0 -0 -0 -0 -0 -0 -0 -0 -0 -0 -0 -0 -0 -0 -0 -0 -0
-0 -0 -0 -0 -0 -0 -0 -0 -0 -0 -0 -0 -0 -0 -0 -0 -0 -0 -0 -0 -0 -0 -0 -0 -0 -0 -0 -0 -0 -0 -0 -0 -0 -0 -0 -0 -0 -0 -0 -0 -0 -0 -0 -0 -0
-0 -0 -1 -0 -0 -0 -0 -0 -0 -0 -0 -0 -0 -0 -0 -0 -0 -0 -0 -0 -0 -0 -0 -0 -0 -0 -0 -0 -0 -0 -0 -0 -0 -0 -0 -0 -0 -0 -0 -0 -0 -0 -0 -0 -0
-0 -0 -4 -0 -1 -0 -0 -0 -0 -0 -0 -0 -0 -0 -0 -0 -0 -0 -0 -0 -0 -0 -0 -0 -0 -0 -0 -0 -0 -0 -0 -0 -0 -0 -0 -0 -0 -0 -0 -0 -0 -0 -0 -0 -0
-0 -0 -0 -11 -0 -0 -0 -0 -0 -0 -0 -0 -0 -0 -0 -0 -0 -0 -0 -0 -0 -0 -0 -0 -0 -0 -0 -0 -0 -0 -0 -0 -0 -0 -0 -0 -0 -0 -0 -0 -0 -0 -0 -0 -0
-0 -0 -2 -1 -0 -0 -0 -0 -0 -0 -0 -0 -0 -0 -0 -0 -0 -0 -0 -0 -0 -0 -0 -0 -0 -0 -0 -0 -0 -0 -0 -0 -0 -0 -0 -0 -0 -0 -0 -0 -0 -0 -0 -0 -0
-0 -0 -0 -0 -0 -0 -0 -0 -0 -0 -0 -0 -0 -0 -0 -0 -0 -0 -0 -0 -0 -0 -0 -0 -0 -0 -0 -0 -0 -0 -0 -0 -0 -0 -0 -0 -0 -0 -0 -0 -0 -0 -0 -0 -0
-0 -0 -0 -0 -0 -0 -0 -0 -0 -0 -0 -0 -0 -0 -0 -0 -0 -0 -0 -0 -0 -0 -0 -0 -0 -0 -0 -0 -0 -0 -0 -0 -0 -0 -0 -0 -0 -0 -0 -0 -0 -0 -0 -0 -0
-0 -0 -0 -0 -0 -0 -0 -0 -0 -0 -0 -0 -0 -0 -0 -0 -0 -0 -0 -0 -0 -0 -0 -0 -0 -0 -0 -0 -0 -0 -0 -0 -0 -0 -0 -0 -0 -0 -0 -0 -0 -0 -0 -0 -0
Wind_Speed
32 32 31 30 28 30 27 26 23 22 22 21 20 20 19 19 19 18 18 20 23 29 30 28 28 28 30 35 38 33 43 51 46 44 39 28 29 25 21 23 23 24 24 23 21
31 32 30 29 28 28 28 23 22 21 21 20 20 19 19 20 19 17 19 21 24 26 30 32 34 30 35 38 39 41 50 44 38 34 35 29 26 25 26 25 24 23 17 15 22
30 31 30 28 27 27 26 21 22 20 20 20 20 20 19 20 19 18 18 20 24 26 29 33 32 31 39 40 43 52 48 32 36 29 28 28 23 23 24 32 27 23 17 19 24
29 30 30 28 27 26 24 21 21 20 19 19 20 20 20 18 27 16 16 21 23 20 25 32 33 36 39 48 43 46 50 40 31 31 28 29 24 23 25 25 19 17 13 17 24
28 29 28 29 25 26 22 22 20 18 18 18 19 20 19 19 18 14 18 24 23 26 28 34 34 37 42 44 44 52 45 45 34 32 28 26 24 25 21 19 16 17 17 18 18
26 27 27 27 25 24 21 21 18 19 18 17 17 19 18 23 15 16 21 20 22 23 23 23 27 36 34 38 48 43 46 50 32 31 28 28 28 26 24 20 19 18 18 20 20
25 26 26 25 23 24 19 21 18 18 18 16 16 17 18 17 13 15 20 20 21 20 19 17 25 29 32 37 40 37 45 47 43 35 32 27 31 29 25 24 21 22 21 19 20
23 25 25 24 23 21 20 19 18 16 16 15 15 17 19 13 13 16 21 19 19 18 19 19 26 28 31 29 34 47 45 44 44 41 30 28 37 30 25 26 25 23 23 21 20
21 23 23 23 23 21 18 18 18 17 16 15 16 17 18 16 13 12 20 20 19 18 19 21 24 26 27 33 39 47 49 42 32 28 27 30 36 32 28 26 29 26 24 24 21
20 21 22 23 21 18 17 16 16 17 17 16 15 20 17 18 12 10 20 19 19 20 20 20 23 20 26 36 49 50 46 50 33 26 25 32 31 34 29 28 28 27 25 23 22
18 20 21 20 20 15 15 17 18 19 18 22 21 18 15 13 9 11 17 18 19 18 21 21 22 29 33 31 34 44 40 37 30 28 24 29 34 30 29 31 33 31 26 26 23
17 18 19 19 17 16 15 16 17 17 21 19 19 17 15 13 11 15 14 14 14 18 21 23 25 30 30 26 31 41 41 37 28 23 27 30 32 27 26 36 38 38 28 29 28
15 16 17 17 16 13 13 15 16 17 22 25 21 20 16 10 12 12 12 14 14 18 22 21 25 26 21 24 28 33 37 33 25 21 21 27 31 32 24 32 39 36 34 34 32
13 13 14 15 14 13 13 15 16 17 27 30 25 22 15 12 14 15 14 15 10 19 21 17 20 25 27 20 23 29 31 33 31 25 23 25 33 34 37 38 41 42 38 39 40
11 11 10 10 13 13 15 17 18 19 37 23 22 14 13 16 13 15 14 14 8 16 21 21 16 19 16 16 20 21 18 27 27 29 23 25 27 31 28 38 41 40 44 42 35
9 8 9 11 12 14 17 20 20 26 37 25 23 25 24 15 15 13 13 14 15 18 15 17 19 13 14 13 16 13 15 17 19 27 35 30 27 26 26 28 31 35 37 37 37
7 6 8 11 14 17 20 20 23 32 22 24 26 24 25 20 16 15 14 15 25 27 12 13 9 14 14 15 13 14 17 21 25 25 29 24 27 25 27 22 19 22 22 23 33
7 6 10 10 14 20 20 20 27 26 25 24 24 22 25 20 17 16 17 15 16 20 25 17 7 12 13 12 17 18 21 23 23 25 22 19 28 23 20 16 15 17 19 23 28
2 13 12 11 17 21 19 20 24 25 26 26 24 24 23 23 22 13 14 15 16 13 18 19 16 17 15 13 13 18 23 19 17 17 23 24 23 19 15 12 12 14 15 16 20
11 15 14 11 23 21 18 20 23 24 27 25 24 23 26 24 22 20 17 12 14 12 13 19 23 17 16 17 15 17 15 21 20 25 28 25 26 25 19 17 18 17 18 19 18
14 18 19 15 23 21 19 21 24 24 25 24 24 25 24 23 22 21 18 14 12 13 10 17 17 21 17 16 18 19 18 16 16 19 26 26 26 18 18 14 13 15 14 15 18
20 21 19 19 26 21 22 23 24 26 23 24 23 23 22 21 21 20 19 16 17 16 14 12 17 18 19 18 18 16 19 19 21 23 23 24 24 18 10 10 10 10 11 12 14
20 17 19 22 25 24 24 24 24 26 25 25 23 21 21 21 20 20 19 14 12 12 17 11 8 6 16 18 17 17 19 18 17 19 23 25 23 18 15 14 13 14 18 20 20
20 20 21 26 22 25 26 26 26 24 25 24 23 21 21 21 19 20 18 16 13 13 13 13 13 14 11 13 16 19 20 17 20 24 27 28 26 22 21 21 22 23 24 26 26
21 22 24 32 31 29 26 26 27 26 23 24 23 22 22 21 21 20 18 18 16 11 12 14 12 14 14 12 14 17 21 24 23 26 27 30 31 32 31 29 27 31 33 32 33
21 19 20 21 22 28 27 27 27 26 25 24 24 24 22 23 20 21 20 18 16 16 16 15 15 14 12 18 16 24 24 23 26 29 34 37 40 33 36 35 38 35 31 32 33
19 16 16 18 13 13 26 27 27 25 23 24 25 25 24 23 22 21 19 18 18 18 17 16 15 13 11 18 20 21 22 24 26 28 31 38 37 34 34 35 34 33 30 31 32
Wind_Direction
346 348 350 354 356 356 357 357 360 1 1 3 6 5 3 356 346 336 324 312 302 295 285 279 270 261 252 242 235 238 234 226 228 226 229 237 236 240 244 237 242 238 239 224 217
345 348 350 354 357 356 358 358 1 2 3 5 5 4 1 355 348 338 329 317 309 297 282 269 257 255 244 237 234 231 225 228 229 231 229 236 237 233 233 234 240 233 238 215 214
346 347 350 354 357 357 359 360 1 3 4 6 5 4 2 358 352 350 346 334 316 302 281 267 256 250 239 232 228 223 227 231 226 231 232 233 234 239 226 233 237 227 220 221 218
345 347 350 354 356 358 0 2 1 4 5 7 6 6 3 6 345 2 354 337 315 316 285 261 250 239 235 226 228 226 230 227 226 229 230 229 237 234 238 237 239 237 220 222 228
344 346 351 353 357 358 2 3 3 3 7 8 8 8 10 3 359 14 356 331 316 276 259 251 243 234 229 226 226 224 224 222 233 227 230 232 231 235 233 237 239 242 242 230 230
343 347 351 355 358 360 3 4 3 6 8 12 13 11 11 356 23 21 356 337 273 273 277 256 246 229 233 227 221 225 225 223 229 224 230 229 234 234 238 243 241 243 243 243 236
343 345 351 356 359 360 6 4 6 8 10 15 17 15 9 9 31 25 359 279 283 269 265 265 240 224 226 222 224 226 221 224 231 232 228 232 230 230 240 242 244 246 248 246 243
342 345 351 358 359 5 5 8 11 14 13 20 22 21 8 31 44 38 324 275 273 274 270 246 218 225 231 225 218 212 215 217 223 226 229 229 225 231 243 241 242 246 248 252 250
341 346 352 358 1 5 10 17 19 23 29 32 30 26 15 26 38 44 274 268 262 272 258 241 219 224 215 213 209 208 210 209 218 219 226 227 229 238 242 243 243 245 250 252 254
340 345 353 359 4 13 20 24 30 34 39 41 35 18 27 25 38 50 277 266 250 251 226 222 222 231 213 213 206 205 206 208 221 220 220 221 228 246 239 242 244 246 248 252 255
339 345 354 2 8 23 33 41 43 42 44 32 23 25 34 45 73 181 261 250 249 241 229 224 217 217 201 215 210 206 207 210 218 221 233 226 237 242 237 242 245 249 249 250 254
336 344 356 4 18 30 49 54 53 52 39 42 40 47 60 73 153 184 251 197 219 217 214 206 207 195 212 219 211 206 204 209 214 222 232 226 235 246 251 244 243 247 250 251 254
337 346 359 10 29 48 69 61 61 62 47 41 51 55 67 175 169 168 165 166 194 197 190 201 196 190 205 214 209 207 208 212 215 221 238 232 243 240 253 246 243 249 252 252 252
334 349 6 19 47 72 72 73 72 72 45 41 53 72 116 167 158 149 166 154 192 178 172 194 211 194 187 205 204 205 213 215 221 231 233 232 236 241 240 235 232 235 245 247 249
331 353 23 48 61 85 79 81 80 75 30 53 68 123 145 142 163 147 155 153 183 187 186 165 189 199 206 208 206 212 214 214 218 224 234 235 242 245 250 243 239 244 238 244 256
325 1 42 43 85 100 83 90 86 58 40 66 88 92 109 142 143 153 149 150 154 164 159 162 170 201 220 217 214 205 205 212 227 234 235 234 242 248 248 253 249 246 246 250 255
318 25 53 60 114 101 99 101 65 47 85 81 93 100 107 128 140 142 132 125 134 152 168 181 194 196 205 214 223 205 204 217 228 228 235 235 243 255 250 260 256 257 263 265 256
293 73 318 1 70 106 116 88 58 74 91 100 103 105 109 133 145 143 141 139 145 151 152 172 192 207 216 227 217 218 222 228 227 226 233 236 246 257 268 270 272 270 272 266 265
140 263 288 288 97 121 118 88 79 93 102 101 104 104 111 124 140 166 152 154 151 164 172 171 178 181 195 219 219 232 230 245 239 255 246 247 259 274 276 279 278 276 285 285 285
243 245 253 266 145 139 117 101 103 109 110 110 98 112 114 123 129 145 163 197 174 188 201 168 132 203 215 213 230 236 259 246 256 247 248 255 260 262 270 270 275 281 285 289 293
229 230 230 241 181 157 115 114 116 123 121 112 107 113 123 122 128 136 154 190 208 192 213 155 176 178 237 251 241 243 255 267 271 265 253 253 257 276 269 274 285 294 302 303 299
222 225 227 220 168 154 129 120 124 123 129 121 121 122 123 127 122 121 152 172 157 181 181 190 99 200 211 233 256 275 263 267 263 265 265 262 265 292 287 297 311 318 309 311 314
218 230 228 215 180 152 146 113 125 129 126 123 124 128 127 123 121 122 117 219 243 275 114 257 334 348 238 254 279 286 274 275 280 276 266 261 269 285 291 292 292 293 294 298 301
217 216 219 209 211 171 132 129 126 140 130 128 129 129 127 122 123 127 127 125 4 346 349 332 29 51 53 315 289 279 277 286 273 271 266 264 274 281 279 280 283 290 294 292 291
221 219 214 197 188 167 154 133 127 126 135 131 129 131 127 118 118 122 128 123 128 156 0 338 57 323 320 349 335 300 278 267 276 269 271 270 272 271 272 276 282 285 289 289 285
218 222 220 218 212 143 157 144 134 131 128 132 125 129 127 119 118 119 122 128 135 125 109 82 108 7 10 316 314 288 289 287 279 276 267 269 263 282 276 280 280 287 291 290 288
228 232 226 217 224 147 143 137 139 123 143 136 128 119 120 124 123 125 133 130 131 127 129 117 104 130 141 333 319 313 305 295 291 288 286 275 280 288 286 286 288 290 293 292 290